CAPE
0 0 0 0 0 0 0 0 0 0 0 0 0 0 0 0 0 0 0 0 0 0 0 0 0 0 0 0 0 0 0 0 0 0 0 0 0 0 0 0 0 0 0
0 0 0 0 0 0 0 0 0 0 0 0 0 0 0 0 0 0 0 0 0 0 0 0 0 0 0 0 0 0 0 0 0 0 0 0 0 0 0 0 0 0 0
1 0 1 0 0 0 0 0 0 0 0 0 0 0 0 1 1 0 0 0 0 0 0 0 0 0 0 0 0 0 0 0 0 0 0 0 0 0 0 0 0 0 0
6 6 5 4 3 4 1 0 0 0 0 0 0 1 1 2 2 1 0 0 0 0 0 0 0 0 0 0 0 0 0 0 0 0 0 0 0 0 0 0 0 0 0
2 2 3 3 3 3 3 2 1 0 0 1 1 2 3 1 0 0 0 0 0 0 0 0 0 0 0 0 0 0 0 0 0 0 0 0 0 0 0 0 0 0 0
3 2 2 1 0 0 0 0 0 0 1 1 1 0 0 0 0 0 0 0 0 0 0 0 0 0 0 0 0 0 0 0 0 0 0 0 0 0 0 0 0 0 0
2 1 1 0 0 0 1 1 2 1 0 0 0 0 0 0 0 0 0 0 0 0 0 0 0 0 0 0 0 0 0 0 0 0 0 0 0 0 0 0 0 0 0
2 1 1 2 1 1 0 0 0 0 0 0 0 0 0 0 1 0 0 0 0 0 0 0 0 0 0 0 0 0 0 0 0 0 0 0 0 0 0 0 0 0 0
1 1 1 1 1 0 1 1 1 1 1 1 1 0 0 0 0 0 0 0 0 0 0 0 0 0 0 0 0 0 0 0 0 0 0 0 1 2 3 1 0 0 0
4 3 3 3 1 1 1 0 0 0 0 0 0 0 0 0 0 1 0 0 0 0 0 0 0 2 3 0 0 0 0 0 0 0 0 0 0 0 0 0 0 0 0
0 0 0 0 0 0 0 0 0 0 0 0 0 0 0 0 0 0 0 0 0 0 0 1 4 5 4 2 3 0 0 1 0 1 0 0 0 0 0 0 0 0 0
0 0 0 0 0 0 0 0 0 0 0 0 0 0 0 0 0 0 0 0 0 0 0 0 0 0 0 0 0 1 7 5 6 5 6 2 7 9 5 0 0 0 0
0 0 0 0 0 0 0 0 0 0 0 0 0 0 0 0 0 0 0 0 0 0 0 0 0 0 0 0 0 0 0 0 6 10 4 1 0 0 5 0 0 0 0
0 0 0 0 0 0 0 0 0 0 0 0 0 0 0 0 0 0 0 0 0 0 0 0 0 0 0 0 0 0 1 0 0 0 0 0 0 0 0 0 0 0 0
0 0 0 0 0 0 0 0 0 0 0 0 0 0 0 0 0 0 0 0 0 0 0 0 0 0 0 0 0 0 0 1 1 0 1 0 1 1 0 0 0 0 0
0 0 0 0 0 0 0 0 0 0 0 0 0 0 0 0 0 0 0 0 0 0 0 0 0 0 0 0 0 0 0 0 1 0 0 0 0 0 0 0 0 0 0
0 0 0 0 0 0 0 0 0 0 0 0 0 0 0 0 0 0 0 0 0 0 0 0 0 0 0 0 0 0 0 0 1 1 0 0 0 0 0 0 0 0 0
0 0 0 0 0 0 0 0 0 0 0 0 0 0 0 0 0 0 0 0 0 0 0 0 0 0 0 0 0 0 0 0 0 0 0 0 0 0 0 0 0 0 0
0 0 0 0 0 0 0 0 0 0 0 0 0 0 0 0 0 0 0 0 0 0 0 0 0 0 0 0 0 0 0 0 0 0 0 0 0 0 0 0 0 0 0
0 0 0 0 0 0 0 0 0 0 0 0 0 0 0 0 0 0 0 0 0 0 0 0 0 0 0 0 0 0 0 0 0 0 0 0 0 0 0 0 0 0 0
0 0 0 0 0 0 0 0 0 0 0 0 0 0 0 0 0 0 0 0 0 0 0 0 0 0 0 0 0 0 0 0 0 0 0 0 0 0 0 0 0 0 0
0 0 0 0 0 0 0 0 0 0 0 0 0 0 0 0 0 0 0 0 0 0 0 0 0 0 0 0 0 0 0 0 0 0 0 0 0 0 0 0 0 0 0
0 0 0 0 0 0 0 0 0 0 0 0 0 0 0 0 0 0 0 0 0 0 0 0 0 0 0 0 0 0 0 0 0 0 0 0 0 0 0 0 0 0 0
0 0 0 0 0 0 0 0 0 0 0 0 0 0 0 0 0 0 0 0 0 0 0 0 0 0 0 0 0 0 0 0 0 0 0 0 0 0 0 0 0 0 0
0 0 0 0 0 0 0 0 0 0 0 0 0 0 0 0 0 0 0 0 0 0 0 0 0 0 0 0 0 0 0 0 0 0 0 0 0 0 0 0 0 0 0
0 0 0 0 0 0 0 0 0 0 0 0 0 0 0 0 0 0 0 0 0 0 0 0 0 0 0 0 0 0 0 0 0 0 0 0 0 0 0 0 0 0 0
CIN
0 0 0 0 0 0 0 0 0 0 0 0 0 0 0 0 0 0 0 0 0 0 0 0 0 0 0 0 0 0 0 0 0 0 0 0 0 0 0 0 0 0 0
0 0 0 0 0 0 0 0 0 0 0 0 0 0 0 0 0 0 0 0 0 0 0 0 0 0 0 0 0 0 0 0 0 0 0 0 0 0 0 0 0 0 0
0 0 0 0 0 0 0 0 0 0 0 0 0 0 0 0 0 0 0 0 0 0 0 0 0 0 0 0 0 0 0 0 0 0 0 0 0 0 0 0 0 0 0
0 0 0 0 0 0 0 0 0 0 0 0 0 0 0 0 0 0 0 0 0 0 0 0 0 0 0 0 0 0 0 0 0 0 0 0 0 0 0 0 0 0 0
0 0 0 0 0 0 0 0 0 0 0 0 0 0 0 0 0 0 0 0 0 0 0 0 0 0 0 0 0 0 0 0 0 0 0 0 0 0 0 0 0 0 0
0 0 0 0 0 0 0 0 0 0 0 0 0 0 0 0 0 0 0 0 0 0 0 0 0 0 0 0 0 0 0 0 0 0 0 0 0 0 0 0 0 0 0
0 0 0 0 0 0 0 0 0 0 0 0 0 0 0 0 0 0 0 0 0 0 0 0 0 0 0 0 0 0 0 0 0 0 0 0 0 0 0 0 0 0 0
0 0 0 0 0 0 0 0 0 0 0 0 0 0 0 0 0 0 0 0 0 0 0 0 0 0 0 0 0 0 0 0 0 0 0 0 0 0 0 0 0 0 0
0 0 0 0 0 0 0 0 0 0 0 0 0 0 0 0 0 0 0 0 0 0 0 0 0 0 0 0 0 0 0 0 0 0 0 0 0 0 0 -1 0 0 0
0 0 0 0 0 0 0 0 0 0 0 0 0 0 0 0 0 0 0 0 0 0 0 0 0 0 0 -1 -1 -1 0 0 0 0 0 0 0 0 0 0 0 0 0
0 0 0 0 0 0 0 0 0 0 0 0 0 0 0 0 0 0 0 0 0 0 -1 -1 0 0 0 -1 -1 0 0 -1 0 -1 -1 -1 -2 0 0 0 0 0 0
0 0 0 0 0 0 0 0 0 0 0 0 0 0 0 0 0 0 0 0 0 0 0 0 0 0 0 -1 -1 -1 0 -1 -1 -1 -1 -1 -1 -2 -6 0 0 0 0
0 0 0 0 0 0 0 0 0 0 0 0 0 0 0 0 0 0 0 0 0 0 0 0 0 0 0 0 0 0 -1 0 0 -1 -3 -6 0 0 -2 0 0 0 0
0 0 0 0 0 0 0 0 0 0 0 0 0 0 0 0 0 0 0 0 0 0 0 0 0 0 0 0 0 0 0 0 0 0 0 0 0 -1 0 0 0 0 0
0 0 0 0 0 0 0 0 0 0 0 0 0 0 0 0 0 0 0 0 0 0 0 0 0 0 0 0 0 0 -1 0 0 -1 -3 -1 -2 0 0 0 0 0 0
0 0 0 0 0 0 0 0 0 0 0 0 0 0 0 0 0 0 0 0 0 0 0 0 0 0 0 0 0 0 0 0 -1 -1 0 0 0 0 0 0 0 0 0
0 0 0 0 0 0 0 0 0 0 0 0 0 0 0 0 0 0 0 0 0 0 0 0 0 0 0 0 0 0 0 -1 0 -1 -1 0 0 0 0 0 0 0 0
0 0 0 0 0 0 0 0 0 0 0 0 0 0 0 0 0 0 0 0 0 0 0 0 0 0 0 0 0 0 0 0 0 0 0 0 0 0 0 0 0 0 0
0 0 0 0 0 0 0 0 0 0 0 0 0 0 0 0 0 0 0 0 0 0 0 0 0 0 0 0 0 0 0 0 0 0 0 0 0 0 0 0 0 0 0
0 0 0 0 0 0 0 0 0 0 0 0 0 0 0 0 0 0 0 0 0 0 0 0 0 0 0 0 0 0 0 0 0 0 0 0 0 0 0 0 0 0 0
0 0 0 0 0 0 0 0 0 0 0 0 0 0 0 0 0 0 0 0 0 0 0 0 0 0 0 0 0 0 0 0 0 0 0 0 0 0 0 0 0 0 0
0 0 0 0 0 0 0 0 0 0 0 0 0 0 0 0 0 0 0 0 0 0 0 0 0 0 0 0 0 0 0 0 0 0 0 0 0 0 0 0 0 0 0
0 0 0 0 0 0 0 0 0 0 0 0 0 0 0 0 0 0 0 0 0 0 0 0 0 0 0 0 0 0 0 0 0 0 0 0 0 0 0 0 0 0 0
0 0 0 0 0 0 0 0 0 0 0 0 0 0 0 0 0 0 0 0 0 0 0 0 0 0 0 0 0 0 0 0 0 0 0 0 0 0 0 0 0 0 0
0 0 0 0 0 0 0 0 0 0 0 0 0 0 0 0 0 0 0 0 0 0 0 0 0 0 0 0 0 0 0 0 0 0 0 0 0 0 0 0 0 0 0
0 0 0 0 0 0 0 0 0 0 0 0 0 0 0 0 0 0 0 0 0 0 0 0 0 0 0 0 0 0 0 0 0 0 0 0 0 0 0 0 0 0 0
Wind_Speed
22 19 19 18 14 14 16 20 20 19 18 17 16 16 15 17 16 18 18 18 20 21 22 21 21 21 23 23 22 25 28 29 36 36 29 28 28 29 30 29 30 31 32
23 23 20 18 17 17 16 17 18 19 19 17 16 17 16 16 18 18 19 23 22 22 21 22 22 22 25 26 27 29 29 27 33 39 32 33 33 33 34 34 33 33 33
20 21 21 20 21 18 18 16 16 16 17 16 16 16 15 16 15 18 22 23 21 21 21 23 25 26 29 30 30 29 29 29 29 33 37 36 37 36 38 37 37 36 36
18 18 19 18 18 16 16 15 13 14 13 11 13 15 12 17 20 18 19 20 22 22 22 24 26 30 32 30 29 28 28 31 33 36 39 41 40 40 38 41 43 39 40
15 16 16 15 13 14 13 11 7 7 11 13 11 14 15 17 19 20 21 22 24 26 27 29 31 29 25 26 28 31 33 35 37 39 42 43 43 43 42 43 45 44 43
10 12 11 10 10 10 11 10 10 11 12 16 15 15 16 18 20 23 25 27 29 32 35 31 25 26 28 31 32 33 33 36 39 40 43 44 45 44 45 44 46 47 51
11 12 15 14 14 12 12 13 13 11 12 14 16 18 20 22 25 28 30 32 33 30 31 30 32 33 35 37 36 36 36 36 36 40 44 44 47 45 45 47 46 46 47
15 16 16 16 15 14 15 14 14 15 16 18 20 22 24 27 30 32 33 31 29 30 32 35 37 39 39 40 41 42 41 39 39 40 42 46 45 44 44 45 47 47 45
20 19 18 17 18 19 19 17 18 18 20 22 24 26 27 28 30 31 31 31 33 35 36 37 39 41 42 44 46 48 48 47 43 43 43 43 43 43 42 45 46 47 50
21 21 21 20 21 21 20 20 21 22 23 24 25 26 28 29 31 33 35 35 38 39 40 41 42 44 47 48 49 50 52 52 51 50 47 46 46 46 44 43 45 48 48
20 20 21 22 23 24 25 26 26 26 26 27 27 28 31 32 34 39 40 40 43 44 45 46 46 49 51 51 51 50 52 55 55 55 55 54 52 49 47 44 43 44 48
23 24 25 26 28 28 28 29 29 29 29 30 31 32 34 35 39 41 43 44 45 47 48 49 51 55 55 54 54 54 56 56 54 55 55 55 54 53 51 46 45 44 43
30 30 30 30 30 30 30 31 31 32 33 34 35 37 38 39 40 44 44 46 48 49 48 52 55 54 54 53 54 56 55 54 55 55 56 55 54 53 51 47 43 41 41
30 31 31 31 31 32 32 32 33 34 35 36 37 39 39 41 43 45 47 48 49 49 52 52 52 53 53 54 54 54 53 54 56 58 59 59 59 56 51 45 44 43 43
32 32 33 33 33 33 34 34 34 35 36 37 38 39 42 44 46 48 49 50 51 52 53 52 54 55 58 59 58 58 57 57 58 57 57 60 59 60 55 44 42 43 46
33 34 34 34 34 35 35 35 36 36 37 38 40 40 40 43 47 49 50 52 53 55 54 57 60 61 62 63 63 63 61 61 59 61 61 60 61 59 56 46 44 43 46
34 35 35 36 37 37 37 38 39 38 37 40 42 43 45 46 50 51 53 54 55 56 56 57 59 59 61 61 63 65 66 63 62 60 61 61 59 56 50 44 43 41 40
35 36 36 36 37 37 38 38 38 41 43 44 44 45 47 48 51 52 53 53 55 54 54 58 59 60 62 63 64 64 64 63 62 61 60 57 54 52 43 42 38 36 33
36 36 35 35 36 37 37 38 39 41 43 44 46 47 48 49 51 51 52 53 56 56 57 58 58 60 61 61 62 62 61 60 59 58 55 51 47 42 42 36 30 27 25
34 36 37 37 38 39 40 41 43 45 47 48 49 50 50 50 55 54 53 53 55 57 58 59 59 58 59 59 59 58 57 56 54 51 48 44 42 36 35 28 23 21 20
36 36 38 38 39 40 41 42 42 42 43 44 45 45 48 51 55 55 55 55 56 56 57 57 57 57 56 56 55 54 52 50 48 45 42 40 33 34 26 22 20 18 15
35 35 36 37 38 39 40 40 41 42 44 47 46 46 49 50 53 54 54 54 54 53 53 54 54 53 52 51 51 49 47 45 43 41 39 33 30 25 21 19 17 16 16
34 35 37 38 38 40 41 42 43 44 45 46 47 51 52 53 54 55 55 54 53 52 50 49 50 50 48 47 45 43 41 40 38 37 35 29 25 23 21 19 18 17 18
34 36 37 39 41 42 43 45 45 45 47 49 51 53 54 55 56 56 54 52 50 49 48 48 47 46 46 44 41 37 35 32 33 30 29 27 25 23 20 19 18 17 16
35 37 39 41 43 45 47 47 49 49 51 52 54 55 56 56 56 54 51 49 48 47 47 45 43 42 41 40 36 34 35 29 30 28 25 24 22 20 18 18 15 13 13
36 39 41 42 44 46 47 49 50 51 54 55 55 56 55 55 52 51 49 47 46 45 43 41 40 39 38 35 32 33 34 27 28 26 23 20 19 17 15 14 11 11 13
Wind_Direction
246 242 243 238 235 240 247 255 257 260 258 258 259 264 271 279 281 289 291 300 298 304 303 305 307 310 309 311 314 313 312 313 310 315 319 320 316 314 314 313 313 312 313
254 255 255 246 251 250 255 257 258 259 262 261 263 270 267 273 286 289 290 301 301 303 304 304 306 309 308 310 311 310 312 314 312 312 315 314 312 313 312 311 311 311 311
268 261 263 261 259 262 267 269 267 264 261 264 269 271 273 283 288 299 298 299 301 303 305 305 305 308 308 309 311 312 313 313 311 310 310 313 313 313 312 310 309 309 309
277 277 275 274 273 270 274 278 276 280 268 266 275 275 288 297 303 308 303 305 305 308 308 308 309 308 309 312 312 311 311 311 310 309 309 310 311 312 310 310 310 310 309
294 288 296 292 290 293 284 291 294 285 282 287 300 293 314 307 308 309 309 310 309 309 310 309 310 313 312 312 312 312 311 309 309 309 308 309 310 311 310 312 309 310 309
331 325 334 336 343 342 328 311 308 315 305 305 310 313 319 319 320 317 314 311 310 308 308 316 320 318 315 312 311 308 308 309 307 307 307 307 307 309 309 308 308 309 311
2 0 347 352 352 351 346 340 329 340 333 328 328 325 323 324 322 315 312 313 315 322 322 322 321 320 317 315 313 311 309 306 302 305 305 305 306 308 309 308 307 306 306
9 7 1 9 13 357 14 360 346 344 342 338 334 331 326 322 318 321 322 326 329 328 325 322 320 319 318 317 315 313 312 310 308 306 303 304 305 307 306 306 306 305 307
22 20 14 13 16 15 11 3 352 343 338 334 330 330 331 336 341 341 340 336 331 328 326 325 323 322 321 319 317 315 313 312 312 309 306 304 304 303 303 306 305 304 303
18 19 19 15 13 8 356 351 347 347 346 354 354 1 359 355 352 348 342 337 333 329 328 327 326 324 323 321 318 316 314 314 314 312 310 308 307 305 302 300 302 300 302
11 10 9 8 7 6 10 11 9 8 8 6 3 359 354 350 346 342 340 336 332 329 327 326 325 324 322 320 318 316 314 314 312 311 310 309 308 305 302 299 297 295 297
12 13 9 9 15 17 16 13 10 7 1 357 353 350 348 346 343 341 338 336 334 330 328 327 325 323 322 321 320 318 316 314 313 311 310 310 309 308 306 301 297 296 297
23 19 19 19 16 14 11 6 2 360 355 351 348 345 343 343 342 340 339 337 335 332 331 328 327 327 326 325 324 322 321 320 317 314 311 309 309 308 308 306 303 303 302
19 16 15 12 9 8 7 5 1 358 355 352 348 345 343 342 341 340 339 338 337 335 333 332 331 330 329 328 327 326 324 322 319 316 314 313 313 313 304 304 302 302 302
16 13 11 9 7 6 5 3 1 1 357 351 349 347 344 343 342 341 340 338 337 335 333 333 331 330 329 328 327 326 325 324 322 319 317 316 314 313 308 302 303 304 302
13 10 9 8 6 4 1 359 2 1 359 357 354 351 349 346 343 342 340 339 337 336 335 334 332 332 330 329 328 326 326 324 323 320 318 317 315 312 309 303 304 303 304
11 7 5 3 2 1 1 360 356 358 359 356 353 352 350 346 344 342 341 340 340 339 338 337 334 334 331 330 329 326 325 325 323 322 320 318 317 315 312 308 307 308 308
9 8 8 7 5 4 1 360 358 354 351 351 353 351 348 346 344 344 343 342 341 342 340 336 334 333 332 330 329 328 327 326 325 323 322 320 319 318 316 314 311 311 311
11 9 9 8 7 6 4 2 360 357 354 351 348 348 348 346 346 346 345 344 340 338 338 337 336 334 333 332 331 330 329 327 327 326 325 325 324 322 323 320 318 318 319
14 12 11 9 7 5 3 359 356 353 350 348 347 346 345 345 344 344 344 342 340 338 337 336 336 336 335 334 333 332 332 331 331 331 331 331 330 330 329 330 331 330 331
11 9 7 6 4 2 360 358 356 355 353 351 350 349 347 345 342 341 341 341 340 339 338 338 337 337 337 337 336 336 336 337 338 338 337 336 339 338 342 344 345 347 351
10 9 8 5 4 2 0 359 357 354 352 349 349 349 347 346 343 342 341 340 340 340 340 339 339 340 341 341 341 341 341 342 344 345 344 344 348 355 0 2 5 8 5
9 8 6 4 2 360 358 356 354 352 351 350 349 346 346 344 343 342 341 340 340 340 341 342 342 343 344 345 345 346 347 349 350 354 357 4 8 14 18 20 18 12 360
7 5 2 0 358 356 354 353 352 351 349 348 347 346 345 343 342 341 341 341 341 342 343 343 344 344 346 347 349 352 355 358 360 4 9 15 19 20 16 16 8 352 333
3 0 358 356 354 353 352 351 349 348 347 346 345 344 343 342 341 341 342 342 342 343 343 345 346 347 349 351 354 357 358 5 5 8 10 12 14 10 11 11 356 337 330
359 357 355 353 352 351 350 348 347 346 345 344 342 342 341 341 342 342 343 343 343 344 345 347 348 350 352 356 360 1 358 13 7 2 4 7 11 12 8 7 349 347 347